Regional Weather Roundup
Issued by NWS Goodland, KS

Home | Current Version | Previous Version | Text Only | Print | Product List | Glossary On
Versions: 1 2 3 4 5 6 7 8 9 10 11 12 13 14 15 16 17 18 19 20 21 22 23 24 25 26 27 28 29 30 31 32 33 34 35 36 37 38 39 40 41 42 43 44 45 46 47 48 49 50
000
ASUS43 KGLD 210508
RWRGLD

GOODLAND FORECAST AREA HOURLY WEATHER ROUNDUP
NATIONAL WEATHER SERVICE GOODLAND KS
1000 PM MST MON NOV 20 2017

...OFFICIAL OBSERVATIONS...

CITY           SKY/WX    TMP DP  RH WIND       PRES   REMARKS
GOODLAND KS    CLOUDY    45  19  35 NW5       29.83R
HILL CITY KS   CLOUDY    50  24  36 VRB3      29.77R
IMPERIAL NEB   PTCLDY    48  20  32 N8        29.80R
MCCOOK NEB     CLOUDY    48  26  42 NW9       29.79R
AKRON CO       CLOUDY    48  17  29 NW7       29.85R
BURLINGTON CO  CLEAR     42  15  33 CALM      29.87R
LIMON CO       CLOUDY    33  17  51 CALM      29.89F
$$

...UNOFFICIAL OBSERVATIONS...

CITY           SKY/WX    TMP DP  RH WIND       PRES   REMARKS
COLBY KS       CLOUDY    50  27  40 N5        29.82S
LENORA KS        N/A     51  32  48 NW7         N/A
NORTON KS      CLEAR     48  18  29 NW9       29.76
SHARON SPRINGS   N/A     41  19  41 W7          N/A
TRIBUNE KS     CLOUDY    37  18  44 NW5       29.87R
TRENTON NEB      N/A     48  32  54 N5          N/A
YUMA CO        FAIR      41  23  48 SW8       29.84R
$$




USA.gov is the U.S. government's official web portal to all federal, state and local government web resources and services.